Date String (YYYY-MM-DD hh:mm:ss) UTC,Instrument flags,Ambient pressure (hPa),Sample flow (lpm),Bypass flow (lpm),Sample temperature (°C),Ambient temperature (°C),ASC tube jacket temperature (°C),LED temperature (°C),Box temperature (°C),Sample RH (%),Span deviation,Mass concentration (μg/m³),Mass concentration (μg/m³),Mass concentration (μg/m³)
DateTimeUTC,F1_M11,P_M11,Q1_M11,Q2_M11,T1_M11,T2_M11,T3_M11,T4_M11,T5_M11,U1_M11,ZSPAN_M11,X0_M11,X2_M11,X1_M11
2022-02-26 21:00:00,,0830.7,5.00,0.00,24.3,23.7,00.0,33.1,26.3,07.4,0001.0,0017.63,0013.72,0012.93
2022-02-26 21:01:00,,0830.7,5.00,0.00,24.3,23.7,00.0,33.1,26.3,07.3,0001.2,0017.82,0013.74,0012.94
2022-02-26 21:02:00,,0830.7,4.99,0.00,24.4,23.7,00.0,33.2,26.3,07.3,0001.3,0017.77,0013.73,0012.94
2022-02-26 21:03:00,,0830.7,4.99,0.00,24.4,23.8,00.0,33.2,26.3,07.3,0001.5,0017.79,0013.73,0012.96
2022-02-26 21:04:00,,0830.7,5.00,0.00,24.4,23.8,00.0,33.2,26.3,07.1,0001.1,0017.69,0013.73,0012.96
2022-02-26 21:05:00,,0830.7,4.99,0.00,24.4,23.8,00.0,33.2,26.3,07.1,0001.3,0017.78,0013.73,0012.95
2022-02-26 21:06:00,,0830.7,5.00,0.00,24.4,23.8,00.0,33.2,26.3,07.2,0001.3,0018.25,0013.72,0012.94
2022-02-26 21:07:00,,0830.8,5.00,0.00,24.4,23.8,00.0,33.2,26.3,07.0,0001.3,0018.09,0013.67,0012.90
2022-02-26 21:08:00,,0830.8,5.01,0.00,24.5,23.9,00.0,33.3,26.4,07.0,0001.3,0018.28,0013.77,0012.92
2022-02-26 21:09:00,,0830.7,5.00,0.00,24.5,23.9,00.0,33.3,26.3,07.3,0001.3,0018.48,0013.81,0012.92
2022-02-26 21:10:00,,0830.7,5.00,0.00,24.5,23.9,00.0,33.3,26.4,07.4,0001.5,0018.58,0013.80,0012.91
2022-02-26 21:11:00,,0830.7,5.00,0.00,24.5,23.9,00.0,33.3,26.5,07.4,0001.5,0018.45,0013.73,0012.89
2022-02-26 21:12:00,,0830.7,5.00,0.00,24.5,23.9,00.0,33.3,26.5,07.4,0001.2,0018.43,0013.69,0012.87
2022-02-26 21:13:00,,0830.7,5.00,0.00,24.5,23.9,00.0,33.3,26.5,06.8,0001.1,0019.27,0013.70,0012.86
2022-02-26 21:14:00,,0830.7,5.00,0.00,24.6,23.9,00.0,33.4,26.5,06.7,0000.7,0019.27,0013.70,0012.85
2022-02-26 21:15:00,,0830.7,4.99,0.00,24.6,23.9,00.0,33.4,26.5,06.7,0001.0,0019.40,0013.71,0012.83
2022-02-26 21:16:00,,0830.8,5.01,0.00,24.6,23.9,00.0,33.4,26.5,06.9,0000.8,0019.28,0013.67,0012.80
2022-02-26 21:17:00,,0830.8,5.00,0.00,24.6,23.9,00.0,33.4,26.5,07.0,0000.7,0018.69,0013.57,0012.75
2022-02-26 21:18:00,,0830.8,5.01,0.00,24.6,23.9,00.0,33.4,26.5,07.0,0000.9,0019.53,0013.56,0012.74
2022-02-26 21:19:00,,0830.8,4.99,0.00,24.6,23.9,00.0,33.4,26.5,07.1,0000.8,0019.48,0013.50,0012.71
2022-02-26 21:20:00,,0830.8,5.00,0.00,24.6,23.9,00.0,33.4,26.5,06.6,0000.4,0019.29,0013.42,0012.64
2022-02-26 21:21:00,,0830.8,4.99,0.00,24.6,24.0,00.0,33.5,26.6,06.6,0000.0,0019.19,0013.32,0012.55
2022-02-26 21:22:00,,0830.8,4.99,0.00,24.7,24.0,00.0,33.5,26.6,06.7,-000.0,0019.39,0013.26,0012.49
2022-02-26 21:23:00,,0830.8,5.00,0.00,24.7,24.0,00.0,33.5,26.6,06.6,0000.3,0019.29,0013.20,0012.43
2022-02-26 21:24:00,,0830.8,5.01,0.00,24.7,24.0,00.0,33.5,26.6,06.8,0000.4,0018.21,0013.14,0012.41
2022-02-26 21:25:00,,0830.9,5.00,0.00,24.7,24.0,00.0,33.5,26.6,06.7,0001.0,0018.12,0013.05,0012.38
2022-02-26 21:26:00,,0830.8,4.99,0.00,24.7,24.0,00.0,33.5,26.6,06.6,0001.0,0017.97,0012.95,0012.33
2022-02-26 21:27:00,,0830.9,5.00,0.00,24.7,24.0,00.0,33.5,26.6,06.7,0001.7,0018.01,0012.90,0012.30
2022-02-26 21:28:00,,0830.9,5.00,0.00,24.7,24.0,00.0,33.5,26.6,06.5,0002.1,0018.44,0012.87,0012.25
2022-02-26 21:29:00,,0830.9,4.99,0.00,24.7,24.1,00.0,33.6,26.7,06.7,0002.3,0017.46,0012.82,0012.19
2022-02-26 21:30:00,,0830.8,5.01,0.00,24.7,24.0,00.0,33.6,26.7,06.4,0002.4,0017.42,0012.73,0012.13
2022-02-26 21:31:00,,0830.8,5.00,0.00,24.8,24.0,00.0,33.6,26.7,06.4,0002.7,0017.65,0012.69,0012.08
2022-02-26 21:32:00,,0830.9,5.00,0.00,24.8,24.0,00.0,33.6,26.7,06.6,0003.2,0017.74,0012.71,0012.10
2022-02-26 21:33:00,,0830.9,5.00,0.00,24.8,24.0,00.0,33.6,26.7,06.5,0003.1,0017.53,0012.74,0012.09
2022-02-26 21:34:00,,0830.9,5.00,0.00,24.8,24.0,00.0,33.6,26.7,06.5,0002.8,0017.52,0012.73,0012.04
2022-02-26 21:35:00,,0830.9,4.99,0.00,24.8,24.1,00.0,33.6,26.7,06.3,0002.6,0017.47,0012.64,0011.94
2022-02-26 21:36:00,,0831.0,5.00,0.00,24.8,24.1,00.0,33.6,26.7,06.4,0002.4,0018.28,0012.60,0011.87
2022-02-26 21:37:00,,0830.9,5.00,0.00,24.8,24.1,00.0,33.6,26.7,06.3,0002.6,0018.60,0012.58,0011.82
2022-02-26 21:38:00,,0830.9,5.02,0.00,24.8,24.1,00.0,33.6,26.7,06.4,0002.4,0018.50,0012.55,0011.77
2022-02-26 21:39:00,,0831.0,5.00,0.00,24.8,24.1,00.0,33.7,26.7,06.7,0002.5,0017.85,0012.47,0011.69
2022-02-26 21:40:00,,0830.9,5.00,0.00,24.8,24.1,00.0,33.7,26.8,06.3,0002.3,0017.67,0012.34,0011.59
2022-02-26 21:41:00,,0831.0,5.00,0.00,24.9,24.1,00.0,33.7,26.8,06.3,0002.3,0017.40,0012.22,0011.48
2022-02-26 21:42:00,,0830.9,5.00,0.00,24.9,24.1,00.0,33.7,26.8,06.5,0002.4,0017.82,0012.14,0011.40
2022-02-26 21:43:00,,0831.0,5.00,0.00,24.9,24.2,00.0,33.7,26.8,06.5,0002.3,0017.68,0012.00,0011.26
2022-02-26 21:44:00,,0831.0,5.01,0.00,24.9,24.2,00.0,33.7,26.8,06.4,0002.3,0018.23,0011.83,0011.10
2022-02-26 21:45:00,,0831.0,4.99,0.00,24.9,24.2,00.0,33.7,26.8,05.9,0002.8,0018.00,0011.67,0010.97
2022-02-26 21:46:00,,0831.0,5.00,0.00,24.9,24.2,00.0,33.7,26.8,06.2,0003.1,0017.88,0011.54,0010.84
2022-02-26 21:47:00,,0831.0,5.00,0.00,24.9,24.2,00.0,33.7,26.8,06.1,0002.8,0017.58,0011.41,0010.72
2022-02-26 21:48:00,,0831.0,5.01,0.00,24.9,24.2,00.0,33.7,26.8,06.4,0002.2,0017.43,0011.23,0010.57
2022-02-26 21:49:00,,0831.1,5.00,0.00,24.9,24.2,00.0,33.7,26.8,06.3,0002.2,0017.23,0011.05,0010.40
2022-02-26 21:50:00,,0831.2,5.01,0.00,24.9,24.2,00.0,33.8,26.8,05.9,0001.7,0017.25,0010.96,0010.29
2022-02-26 21:51:00,,0831.2,5.00,0.00,24.9,24.2,00.0,33.8,26.8,06.3,0001.6,0017.32,0010.90,0010.20
2022-02-26 21:52:00,,0831.2,5.00,0.00,24.9,24.2,00.0,33.8,26.8,06.1,0001.4,0017.35,0010.84,0010.12
2022-02-26 21:53:00,,0831.2,4.99,0.00,24.9,24.2,00.0,33.8,26.8,06.0,0001.0,0016.43,0010.74,0010.03
2022-02-26 21:54:00,,0831.1,4.99,0.00,24.9,24.2,00.0,33.8,26.8,05.8,0001.1,0016.24,0010.67,0009.96
2022-02-26 21:55:00,,0831.2,5.00,0.00,24.9,24.2,00.0,33.8,26.8,05.8,0000.9,0015.39,0010.57,0009.88
2022-02-26 21:56:00,,0831.2,5.00,0.00,24.9,24.2,00.0,33.8,26.8,05.7,0000.7,0015.38,0010.51,0009.82
2022-02-26 21:57:00,,0831.2,5.00,0.00,24.9,24.2,00.0,33.8,26.8,05.8,0000.8,0015.32,0010.47,0009.79
2022-02-26 21:58:00,,0831.2,5.01,0.00,24.9,24.2,00.0,33.8,26.9,06.0,0001.3,0014.51,0010.41,0009.74
2022-02-26 21:59:00,,0831.1,5.01,0.00,24.9,24.2,00.0,33.8,26.9,06.1,0001.5,0014.21,0010.39,0009.70
